[Date Prev][Date Next][Thread Prev][Thread Next] - [Date Index][Thread Index][Author Index]
2 Line ISS Keps 12-1
- Subject: [sarex] 2 Line ISS Keps 12-1
- From: "Dave Larsen PhD" <doc@xxxxxxxxxxx>
- Date: Sat, 1 Dec 2001 14:06:43 -0800
ISS
1 25544U 98067A 01335.82047058 .00023042 00000-0 25503-3 0 7836
2 25544 51.6400 325.4009 0010341 42.5240 21.8972 15.62840250173246
----
Via the sarex mailing list at AMSAT.ORG courtesy of AMSAT-NA.
To unsubscribe, send "unsubscribe sarex" to Majordomo@amsat.org
AMSAT Home